Regional Weather Roundup
Issued by NWS Huntsville, AL

Home | Current Version | Previous Version | Text Only | Print | Product List | Glossary On
Versions: 1 2 3 4 5 6 7 8 9 10 11 12 13 14 15 16 17 18 19 20 21 22 23 24 25 26 27 28 29 30 31 32 33 34 35 36 37 38 39 40 41 42 43 44 45 46 47 48 49 50
000
ASUS44 KHUN 061710
RWRHUN

WEATHER ROUNDUP FOR THE TENNESSEE VALLEY
NATIONAL WEATHER SERVICE HUNTSVILLE AL
1200 PM CDT FRI MAY 06 2016

ALZ001>004-061800-
NORTHWEST ALABAMA

CITY           SKY/WX    TMP DP  RH WIND       PRES   REMARKS
COURTLAND HCN    N/A     66 N/A N/A MISG        N/A
RUSSELLVILLE     N/A     66 N/A N/A MISG        N/A
SHOALS AIRPORT SUNNY     70  40  33 NE8       30.06F
SHOALS TVA RES   N/A     68 N/A N/A MISG        N/A
$$

ALZ005>007-016-061800-
NORTH CENTRAL ALABAMA

CITY           SKY/WX    TMP DP  RH WIND       PRES   REMARKS
CULLMAN AG STN   N/A     64 N/A N/A N9          N/A
DECATUR AP     MOSUNNY   69  41  36 N16G24    30.04F
HUNTSVILLE AP  PTSUNNY   72  41  32 N16G23    30.03F
HUN NWS/UAH      N/A     68  39  34 N10         N/A
MERIDIANVILLE  MOSUNNY   68  37  32 N16       30.02F
REDSTONE ARSN  PTSUNNY   67  47  48 N13       30.02F
VINEMONT AP    FAIR      65  44  45 NW6       30.05S
$$

ALZ008>010-061800-
NORTHEAST ALABAMA

CITY           SKY/WX    TMP DP  RH WIND       PRES   REMARKS
ALBERTVILLE    PTSUNNY   64  50  59 N15G22    30.00F
FORT PAYNE     MOSUNNY   64  36  34 N17G25    29.98F
SCOTTSBORO AP  MOSUNNY   68  41  37 N18G31    30.01S
SCOTTSBORO HCN   N/A     68 N/A N/A MISG        N/A
VALLEY HEAD      N/A     64 N/A N/A MISG        N/A
$$

TNZ076-096-097-061800-
SOUTHEASTERN MIDDLE TENNESSEE

CITY           SKY/WX    TMP DP  RH WIND       PRES   REMARKS
TULLAHOMA      SUNNY     64  45  48 N10       30.02F
WINCHESTER     MOSUNNY   66  43  42 N12       30.01F
$$

...SURROUNDING SITES...

CITY           SKY/WX    TMP DP  RH WIND       PRES   REMARKS
ATLANTA        PTSUNNY   67  40  37 N18G31    29.93F
ANNISTON       MOSUNNY   69  39  33 N8G23     29.99F
BIRMINGHAM     SUNNY     69  44  40 N20G26    30.04F
CHATTANOOGA    PTSUNNY   68  40  35 N22G28    29.98F
DALTON         MOSUNNY   64  43  45 NW15G22   29.97F
GADSDEN        MOSUNNY   68  45  43 N14G24    30.00F
GOLDEN TRNGL   MOSUNNY   72  46  40 N9        30.07F
HALEYVILLE     FAIR      67  46  47 N10G18    30.07F
JACKSON TN     MOSUNNY   71  45  39 N10G16    30.08S
MEMPHIS        MOSUNNY   71  49  45 NW10      30.10F
NASHVILLE      MOSUNNY   70  40  33 N13G20    30.03F
OXFORD MS      FAIR      68  43  40 N8        30.11F
ROME           PTSUNNY   68  40  35 N17G26    29.96F
SAVANNAH       SUNNY     68  45  42 N9        30.06S
TUPELO         SUNNY     70  43  37 N9        30.07F
TUSCALOOSA     SUNNY     71  46  40 VRB6      30.05F
$$

...GULF COAST WEATHER...

CITY           SKY/WX    TMP DP  RH WIND       PRES   REMARKS
GULFPORT       SUNNY     70  44  39 N10       30.05F
PASCAGOULA     SUNNY     70  47  43 N10       30.05F
MOBILE         SUNNY     68  47  46 N10G17    30.05F
GULF SHORES    SUNNY     68  46  44 NW8       30.02F
DESTIN         SUNNY     74  46  36 NW13      29.99S
PANAMA CITY    SUNNY     70  45  40 NW12      29.96F
APPALACHICOLA  SUNNY     73  45  36 NW12      29.95F
$$




USA.gov is the U.S. government's official web portal to all federal, state and local government web resources and services.